This is the latest recevied weather packets stored in our database for station/object SP5MRF-11. If no packets are shown the sender has not sent any weather packets the latest 10 day(s).
| Time | Temp. | Humidity | Pressure | Rain* | Wind** | Luminosity | Snow |
|---|---|---|---|---|---|---|---|
| 1788372565 | 17.22° C | 54% | 1019.6 hPa | - | - | - | - |
| 1788371665 | 17.22° C | 53% | 1019.5 hPa | - | - | - | - |
| 1788370765 | 17.78° C | 53% | 1019.4 hPa | - | - | - | - |
| 1788369865 | 18.33° C | 53% | 1019.2 hPa | - | - | - | - |
| 1788368965 | 18.33° C | 52% | 1019.2 hPa | - | - | - | - |
| 1788368065 | 18.89° C | 52% | 1019.1 hPa | - | - | - | - |
| 1788367164 | 19.44° C | 52% | 1018.9 hPa | - | - | - | - |
| 1788366264 | 20° C | 51% | 1019 hPa | - | - | - | - |
| 1788365364 | 20° C | 52% | 1019 hPa | - | - | - | - |
| 1788364464 | 20.56° C | 52% | 1019 hPa | - | - | - | - |
| 1788363564 | 21.11° C | 51% | 1018.9 hPa | - | - | - | - |
| 1788359963 | 22.22° C | 50% | 1019.2 hPa | - | - | - | - |
| 1788359063 | 22.78° C | 49% | 1019.4 hPa | - | - | - | - |
| 1788358163 | 23.33° C | 49% | 1019.4 hPa | - | - | - | - |
| 1788357262 | 22.78° C | 49% | 1019.3 hPa | - | - | - | - |
| 1788356362 | 22.78° C | 49% | 1019.2 hPa | - | - | - | - |
| 1788355462 | 23.33° C | 49% | 1019.4 hPa | - | - | - | - |
| 1788354562 | 23.89° C | 49% | 1019.5 hPa | - | - | - | - |
| 1788353662 | 23.89° C | 48% | 1019.5 hPa | - | - | - | - |
| 1788352762 | 24.44° C | 48% | 1019.4 hPa | - | - | - | - |
| 1788351861 | 25.56° C | 47% | 1019.5 hPa | - | - | - | - |
| 1788350961 | 25.56° C | 46% | 1019.6 hPa | - | - | - | - |
| 1788350061 | 26.67° C | 46% | 1019.7 hPa | - | - | - | - |
| 1788349161 | 31.67° C | 38% | 1019.6 hPa | - | - | - | - |
| 1788348261 | 32.78° C | 38% | 1019.7 hPa | - | - | - | - |
* Rain since midnight (hover to see other rain measurements)
** Current wind speed in m/s (hover to see current wind gust speed)